Tracking 31027 objects as of 19-Jul-2025
HD Live streaming from Space Station
objects crossing your sky now

STARLINK-30546

Track STARLINK-30546 now!
10-day predictions
STARLINK-30546 is classified as:


NORAD ID: 58003
Int'l Code: 2023-153N
Perigee: 564.3 km
Apogee: 568.0 km
Inclination: 43.0 °
Period: 95.8 minutes
Semi major axis: 6937 km
RCS: Unknown
Launch date: October 5, 2023
Source: United States (US)
Launch site: AIR FORCE EASTERN TEST RANGE (AFETR)
Your satellite tracking list
STARLINK-3674
Track 1 satellite(s)




NASA's NSSDC Master Catalog

Two Line Element Set (TLE):
1 58003U 23153N   25199.66452623  .00004482  00000-0  34655-3 0  9994
2 58003  43.0019 260.3148 0002659 284.4643  75.5904 15.02546057 99689
Source of the keplerian elements: AFSPC